Location: Kalamazoo
(42.2920°N, 85.5870°W)
Time: 04:07:38
(UTC-04:00)

Daily predictions for brighter satellites

Satellite Brightness Start Highest point End
(mag) Time Altitude Azimuth Time Altitude Azimuth Time Altitude Azimuth
Nadezhda 1 Rocket 4.1 00:12:21 10° NNW 00:18:34 66° W 00:18:41 66° W
Cosmos 2278 Rocket 3.1 00:13:35 10° NNW 00:18:23 41° NE 00:18:23 41° NE
ATLAS 2AS CENTAUR R/B 3.9 00:14:42 10° WSW 00:22:10 47° NW 00:29:59 10° NNE
Cosmos 2181 Rocket 4.3 00:16:24 10° N 00:22:12 57° NE 00:22:12 57° NE
Cosmos 2263 Rocket 4.4 00:22:07 10° WNW 00:25:11 15° W 00:25:54 15° WSW
NOSS 3-4 (A) 4.4 00:34:17 38° ENE 00:34:17 38° ENE 00:38:16 10° NE
NOSS 3-4 (C) 4.4 00:34:25 38° ENE 00:34:25 38° ENE 00:38:22 10° NE
Cosmos 1709 Rocket 4.1 00:34:50 68° NNE 00:34:50 68° NNE 00:40:12 10° N
Cosmos 1844 Rocket 3.4 00:29:42 10° NNW 00:34:09 49° WNW 00:34:09 49° WNW
Terra 3.6 00:36:46 25° WNW 00:36:46 25° WNW 00:39:46 10° NW
COSMOS 2428 3.4 00:42:03 50° NW 00:42:03 50° NW 00:47:30 10° NNE
Cosmos 2219 Rocket 2.9 00:47:14 50° N 00:47:14 50° N 00:51:27 10° NNE
SL-16 R/B 4.3 00:49:23 16° ENE 00:49:23 16° ENE 00:50:51 10° NE
CENTAUR R/B 3.9 00:42:10 10° NNW 00:49:32 44° NE 00:52:00 35° E
Cosmos 2333 Rocket 3.0 00:57:37 47° N 00:57:37 47° N 01:01:37 10° NNE
USA 215 3.8 00:55:12 45° ENE 00:56:26 51° NNE 01:02:43 10° NW
Cosmos 2360 Rocket 4.5 00:54:19 10° W 00:58:17 19° NW 01:02:16 10° N
CZ-2C R/B 3.6 00:53:28 10° NNE 00:56:58 42° NNE 00:56:58 42° NNE
ATLAS CENTAUR R/B 4.4 01:10:59 10° N 01:11:20 11° N 01:11:20 11° N
ATLAS CENTAUR R/B 4.0 01:06:59 10° NW 01:17:33 39° NNE 01:18:48 35° NE
NOSS 3-2 (A) 4.4 01:12:17 10° NW 01:18:44 52° W 01:18:44 52° W
Lacrosse 5 3.9 01:20:53 18° WNW 01:23:13 25° NNW 01:27:23 10° NNE
Cosmos 2237 Rocket 3.1 01:26:42 44° N 01:26:42 44° N 01:30:38 10° NNE
COSMOS 2455 3.6 01:30:19 10° NNW 01:35:16 48° NNE 01:35:16 48° NNE
Nadezhda 3 Rocket 4.4 01:55:17 10° N 02:00:22 60° N 02:00:22 60° N
Cosmos 2278 Rocket 4.1 01:58:01 10° NW 02:00:12 20° WNW 02:00:12 20° WNW
Mayak 1.3 02:08:03 10° N 02:09:21 18° NNW 02:09:21 18° NNW
SL-16 R/B 3.2 02:31:15 41° NNW 02:31:15 41° NNW 02:35:34 10° NNE
USA 215 4.4 02:42:33 30° WNW 02:42:33 30° WNW 02:45:48 10° NW
CENTAUR R/B 3.5 02:32:50 10° NW 02:39:07 50° W 02:39:07 50° W
Cosmos 371 Rocket 4.4 03:07:33 41° NE 03:07:33 41° NE 03:10:46 10° NNE
Meteor 2-16 Rocket 4.5 03:07:05 74° NNE 03:07:05 74° NNE 03:12:37 10° N
Cosmos 1943 Rocket 3.0 03:04:29 10° NNW 03:09:46 44° ENE 03:10:34 41° E
Cosmos 2369 Rocket 2.5 03:08:20 10° NNW 03:13:03 61° N 03:13:03 61° N
ADEOS Rocket 3.1 03:09:22 10° NNE 03:14:17 59° ENE 03:14:17 59° ENE
SL-16 R/B 3.5 03:12:49 31° ESE 03:15:11 43° ENE 03:21:00 10° N
BREEZE-M DEB (TANK) 3.8 03:23:08 77° NE 03:23:08 77° NE 03:34:18 10° ENE
IRS-P3 4.4 03:17:36 10° NNE 03:22:20 63° ENE 03:22:20 63° ENE
SL-08 R/B 4.1 03:25:13 49° NNE 03:25:13 49° NNE 03:28:52 10° N
Cosmos 1943 3.3 03:25:19 72° NNE 03:25:19 72° NNE 03:30:24 10° NNE
Cosmos 2218 Rocket 4.4 03:26:20 52° WNW 03:26:20 52° WNW 03:32:14 10° N
Resurs 1-4 Rocket 3.1 03:23:12 10° NNE 03:28:02 36° E 03:28:16 36° ESE
CZ-2D R/B 3.1 03:26:31 10° NNE 03:31:33 38° E 03:31:55 38° ESE
Cosmos 1763 Rocket 3.8 03:33:54 61° NE 03:33:54 61° NE 03:38:11 10° NNE
Cosmos 2058 4.4 03:31:11 10° N 03:34:18 34° NE 03:34:18 34° NE
Cosmos 1937 Rocket 4.2 03:31:24 10° NNW 03:35:14 48° NW 03:35:14 48° NW
Meteor 1-16 Rocket 4.2 03:42:15 87° SW 03:42:20 89° WNW 03:48:15 10° N
Cosmos 304 Rocket 4.4 03:43:46 48° E 03:43:46 48° E 03:47:56 10° NNE
UNK 4.1 03:46:41 60° NE 03:46:41 60° NE 03:50:54 10° N
Cosmos 1934 Rocket 4.4 03:47:32 43° SE 03:49:02 54° E 03:54:55 10° NNE
Cosmos 2151 3.7 03:48:52 10° N 03:52:09 50° NNE 03:52:09 50° NNE
Cosmos 1703 4.5 03:49:34 10° N 03:52:25 41° NNE 03:52:25 41° NNE
Cosmos 2263 4.4 03:48:56 10° NNW 03:53:33 56° WNW 03:53:33 56° WNW
Cosmos 1626 3.7 03:54:01 10° N 03:56:11 33° N 03:56:11 33° N
Meteor 1-11 4.0 03:55:01 10° NNW 04:00:38 76° W 04:00:47 76° WSW
BREEZE-M DEB (TANK) 3.7 04:05:24 56° SW 04:06:00 59° SSW 04:21:17 10° SE
USA 32 3.9 04:01:27 10° N 04:06:44 90° WSW 04:07:10 76° S
MOS 1 Rocket 3.4 04:03:03 10° NNE 04:07:19 59° E 04:07:21 59° ESE
Cosmos 1000 Rocket 4.4 04:02:15 10° NNW 04:08:27 70° W 04:09:26 60° SW
COSMOS 2406 4.3 04:08:44 28° SE 04:10:41 36° ESE 04:15:50 10° NE
Cosmos 1726 4.4 04:10:27 17° ESE 04:11:33 19° E 04:14:11 10° NE
Meteor 2-1 Rocket 4.1 04:11:14 60° S 04:12:19 82° E 04:17:52 10° NNE
USA 229 DEB 4.4 04:07:22 10° NNW 04:14:25 57° NE 04:21:35 10° SE
USA 229 4.4 04:07:29 10° NNW 04:14:32 56° NE 04:21:40 10° SE
Cosmos 2239 Rocket 4.5 04:14:56 56° SW 04:16:15 71° W 04:22:34 10° N
Cosmos 1500 Rocket 4.1 04:12:47 10° NNW 04:16:10 47° NW 04:16:10 47° NW
ERBS 4.5 04:15:05 10° NNW 04:18:06 27° NE 04:21:07 10° E
Cosmos 841 Rocket 3.6 04:19:04 54° W 04:19:21 55° WNW 04:24:28 10° NNE
ARIANE 5 R/B 2.5 04:16:32 10° NNE 04:21:48 88° WNW 04:22:47 61° SSW
ADEOS II 4.3 04:18:30 10° NE 04:22:21 20° E 04:26:10 10° SE
NPP 4.4 04:20:21 10° N 04:25:16 37° WNW 04:25:42 36° WNW
Cosmos 1908 3.3 04:27:34 73° ENE 04:27:34 73° ENE 04:31:16 10° NNE
USA 161 4.4 04:32:42 11° ENE 04:32:45 11° ENE 04:33:28 10° NE
Cosmos 1315 Rocket 4.3 04:31:32 10° N 04:35:18 35° ENE 04:39:00 10° SE
Cosmos 2285 Rocket 4.4 04:34:58 27° S 04:38:28 60° ESE 04:44:44 10° NNE
ADEOS 3.5 04:36:22 10° N 04:41:34 69° WNW 04:43:02 46° SW
IRS-1D 3.8 04:37:09 10° N 04:42:06 51° WNW 04:43:10 43° WSW
Cosmos 1666 Rocket 4.3 04:38:24 10° N 04:42:44 51° E 04:46:41 12° SSE
Cosmos 1300 4.2 04:41:31 20° SE 04:43:32 33° E 04:46:59 10° NNE
SL-27 R/B 4.2 04:43:41 22° SE 04:44:45 26° E 04:47:38 10° NE
Cosmos 1805 Rocket 3.5 04:40:37 10° N 04:45:06 85° E 04:47:01 34° S
Cosmos 2221 2.7 04:51:19 49° WSW 04:51:52 54° W 04:56:09 10° N
Okean O Rocket 4.0 04:48:43 10° NE 04:52:03 21° E 04:55:21 10° SE
Lacrosse 5 4.2 04:48:27 10° NNW 04:52:29 23° NNE 04:56:29 10° ENE
Cosmos 1943 Rocket 3.3 04:48:44 10° NW 04:52:01 24° W 04:52:01 24° W
BREEZE-M DEB (TANK) 3.6 04:45:54 10° W 04:53:20 48° N 04:55:41 10° ENE
Cosmos 2098 Rocket 4.2 04:51:32 35° WSW 04:53:27 46° W 04:58:37 10° N
Cosmos 2369 Rocket 4.3 04:54:31 10° WNW 04:54:47 11° WNW 04:54:47 11° WNW
SL-16 R/B 3.2 04:57:55 30° WSW 04:58:53 32° W 05:04:22 10° NW
ADEOS Rocket 4.4 04:56:14 10° NNW 04:59:52 18° WNW 05:01:13 17° WNW
PSLV R/B 3.2 05:00:56 62° SSE 05:00:56 62° SSE 05:04:04 10° E
Cosmos 1656 Rocket 3.9 05:00:01 10° NW 05:05:31 49° WSW 05:10:38 12° S
Resurs 1-4 Rocket 3.1 05:03:14 10° N 05:07:44 30° WNW 05:09:20 25° W
Cosmos 1400 Rocket 3.2 05:07:10 10° NNW 05:10:51 40° W 05:11:23 38° WSW
CZ-2D R/B 3.2 05:06:53 10° N 05:11:26 29° WNW 05:13:14 24° W
Cosmos 292 Rocket 3.7 05:08:51 26° SSW 05:11:32 85° ESE 05:16:22 10° NNE
Abrixas 4.1 05:10:36 17° NW 05:12:04 28° NNE 05:14:24 10° ENE
Cosmos 372 Rocket 4.3 05:07:33 10° NNW 05:12:26 44° WSW 05:15:39 20° SSW
UNKNOWN OBJECT B 3.5 05:11:08 10° N 05:14:56 40° WNW 05:16:06 32° WSW
CZ-3A R/B 3.8 05:10:06 10° WNW 05:16:07 31° WSW 05:21:00 10° S
Sich 1 3.1 05:19:36 10° NNW 05:23:54 54° W 05:27:17 16° SSW
Meteor 2-17 Rocket 4.4 05:18:16 12° S 05:23:59 84° W 05:30:08 10° N
CZ-4B R/B 4.4 05:19:18 10° NNE 05:24:29 40° E 05:29:31 10° SSE
Cosmos 2228 Rocket 3.3 05:22:48 10° S 05:27:17 74° E 05:31:45 10° NNE
Cosmos 1125 Rocket 4.4 05:22:56 10° NW 05:27:18 27° W 05:29:15 22° SW
Cosmos 1459 Rocket 3.9 05:22:54 10° S 05:29:03 89° E 05:35:11 10° N
Cosmos 1470 Rocket 3.6 05:30:39 10° N 05:35:00 79° E 05:39:19 10° S
Cosmos 2061 Rocket 4.1 05:30:05 10° S 05:36:31 90° ESE 05:43:00 10° N
Cosmos 1892 3.7 05:35:09 10° N 05:38:53 48° E 05:42:35 10° SSE
Landsat 4 4.5 05:37:40 10° SSE 05:41:18 54° ENE 05:44:59 10° N
Cosmos 1515 Rocket 3.5 05:40:15 10° S 05:44:37 87° W 05:49:03 10° N
Cosmos 1538 Rocket 4.0 05:39:51 12° SSW 05:44:50 78° WNW 05:50:14 10° NNE
Cosmos 1726 3.3 05:45:05 19° WSW 05:46:40 26° WNW 05:49:49 10° NNW
In-Cosmos 22 Rocket 4.1 05:41:51 10° NNW 05:47:14 67° W 05:52:29 10° S
Shenzhou-11 Module 4.4 05:45:53 10° S 05:47:47 15° SSE 05:49:41 10° ESE
Cosmos 1633 Rocket 3.7 05:45:17 10° NNW 05:49:16 35° W 05:53:12 10° SSW
ERBS 3.0 05:51:41 10° WNW 05:54:46 32° SW 05:57:51 10° SSE
COSMOS 2406 4.1 05:50:49 15° WSW 05:54:58 34° WNW 06:00:09 10° N
Cosmos 1656 4.3 05:56:18 10° NNW 06:01:59 62° ENE 06:07:37 10° SE
ADEOS II 2.4 05:57:15 10° N 06:02:21 51° WNW 06:07:25 10° SW
USA 229 DEB 4.4 05:58:48 10° NW 06:05:06 34° WSW 06:11:29 10° S
USA 229 4.4 05:58:54 10° NW 06:05:12 34° WSW 06:11:36 10° S
Cosmos 2016 Rocket 4.0 05:59:32 10° SSW 06:05:38 68° W 06:11:44 10° N
NOSS 3-1 (A) 4.1 06:03:02 10° NW 06:10:41 80° WSW 06:19:08 10° SSE
Cosmos 1315 Rocket 4.4 06:08:59 10° NW 06:11:34 17° W 06:14:07 10° SW
BREEZE M DEB (TANK) 4.3 06:07:50 10° WNW 06:11:59 43° SSW 06:26:29 10° SE
Cosmos 1833 Rocket 3.3 06:06:50 10° S 06:12:22 60° ESE 06:17:55 10° NNE
Cosmos 1680 Rocket 4.0 06:08:23 10° S 06:13:36 67° ESE 06:18:53 10° NNE
Cosmos 1328 Rocket 4.5 06:09:57 10° SW 06:13:44 29° WNW 06:17:33 10° NNW
Cosmos 1802 Rocket 4.3 06:08:27 10° SSW 06:14:24 49° WNW 06:20:29 10° N
Cosmos 1725 Rocket 4.0 06:10:35 10° S 06:16:46 79° W 06:22:59 10° N
Cosmos 1300 4.5 06:16:53 10° WSW 06:19:21 16° WNW 06:21:49 10° NNW
SL-27 R/B 4.2 06:17:43 10° WSW 06:19:59 17° WNW 06:22:17 10° NNW
Okean-O 3.9 06:17:00 10° NNE 06:21:17 45° E 06:25:32 10° S
CZ-4B R/B 3.9 06:17:37 10° NNE 06:21:32 77° ESE 06:25:15 10° S
PSLV R/B 4.2 06:19:01 10° N 06:23:03 38° WNW 06:27:02 10° SW
EO 1 Del DPAF 3.5 06:19:26 10° SSE 06:23:15 78° ENE 06:27:07 10° N
Cosmos 2278 3.7 06:17:52 10° NNW 06:23:31 71° WSW 06:29:06 10° SSE
Cosmos 1980 Rocket 3.9 06:18:41 10° N 06:23:57 39° ENE 06:29:10 10° SE
